Location: Beuvrequen
(50.8014°N, 1.6652°E)
Time: 04:02:49
(UTC+00:00)

Cosmos 1697 Rocket - Pass Details

Date: 16 October 2021
Orbit: 834 x 842 km, 71.0° (Epoch: 05 December)

Event Time Altitude Azimuth Distance (km) Brightness Sun altitude
Rises 19:18:25 0° 235° (SW) 3,391 6.4 -22.7°
Reaches altitude 10° 19:21:02 10° 244° (WSW) 2,459 5.8 -23.1°
Maximum altitude 19:26:16 38° 312° (NW) 1,268 4.0 -23.9°
Drops below altitude 10° 19:31:31 10° 20° (NNE) 2,467 5.1 -24.7°
Sets 19:34:10 0° 28° (NNE) 3,404 5.7 -25.1°
